Location: R�serve Fauniques des Laurentides
(47.3100°N, 71.1900°W)
Time: 17:17:34
(UTC-04:00)

Amateur Radio Satellites - All Passes

Search period start: 03 August 2015 16:47
Search period end: 04 August 2015 16:47
Location: R�serve Fauniques des Laurentides, 47.3100°N, 71.1900°W

Satellite Date Start Highest point End Downlink Frequencies (MHz)
Time Altitude Azimuth
STARS 03 Aug 16:52:44 16:57:01 48° 290° (WNW) 17:01:16 437.465
DANDE 03 Aug 16:55:49 16:56:34 10° 268° (W) 16:57:03 436.750
AO-7 03 Aug 16:57:38 17:05:10 35° 266° (W) 17:12:35 29.400- 29.500
MOZHAYETS 4 03 Aug 16:59:17 17:03:46 47° 98° (E) 17:08:14
KKS-1 03 Aug 17:27:27 17:30:19 17° 299° (WNW) 17:33:03 437.445
CUTE-I 03 Aug 17:37:55 17:43:05 52° 70° (ENE) 17:48:18 437.470
HO-68 03 Aug 17:50:47 17:53:19 12° 43° (NE) 17:56:10 435.675
PCSat 03 Aug 18:22:04 18:27:13 43° 245° (WSW) 18:32:17 145.827
BRITE-PL 03 Aug 18:22:29 18:25:05 16° 63° (ENE) 18:27:46 437.365/2234.400
Cubesat XI-IV 03 Aug 18:22:38 18:27:59 69° 257° (WSW) 18:33:22 437.490
SO-50 03 Aug 18:23:25 18:27:42 29° 244° (WSW) 18:31:52 436.795
VERMONT LUNAR 03 Aug 18:23:59 18:26:22 19° 168° (SSE) 18:28:46 437.305
Cosmos 2499 03 Aug 18:24:47 18:33:32 69° 77° (ENE) 18:42:23 435.465 / 435.565
MOZHAYETS 4 03 Aug 18:37:05 18:40:44 23° 296° (WNW) 18:44:15
GONETS M04 03 Aug 18:37:11 18:44:49 34° 276° (W) 18:52:15
PRISM 03 Aug 18:56:34 18:58:54 15° 89° (E) 19:01:22 437.425
CUTE 1.7 + AOD 2 03 Aug 18:57:02 18:58:31 12° 59° (ENE) 19:00:11 437.475
STRAND 1 03 Aug 18:59:02 19:03:03 24° 92° (E) 19:07:10 437.568
CUBESAT XI-V 03 Aug 19:00:49 19:05:26 74° 102° (ESE) 19:10:01 437.345
CANX-2 03 Aug 19:04:46 19:07:12 15° 62° (ENE) 19:09:49 2200.000
CUTE-I 03 Aug 19:19:07 19:23:30 25° 268° (W) 19:27:48 437.470
CINEMA 3 03 Aug 19:22:25 19:23:55 12° 59° (ENE) 19:25:38 145.822/145.860
PHONESAT 2.4 03 Aug 19:23:08 19:25:08 15° 159° (SSE) 19:27:12 2401.200-2431.200
DOVE 4 03 Aug 19:31:06 19:34:38 28° 67° (ENE) 19:38:15 437.250
HO-68 03 Aug 19:32:45 19:39:30 48° 64° (ENE) 19:46:20 435.675
RS-15 03 Aug 19:52:28 20:00:37 26° 103° (ESE) 20:09:24 29.354- 29.394
GOMX 1 03 Aug 19:55:32 19:59:43 81° 76° (ENE) 20:03:54 467.674
BRITE-PL 03 Aug 19:59:06 20:03:20 55° 260° (W) 20:07:26 437.365/2234.400
VERMONT LUNAR 03 Aug 19:59:57 20:02:33 23° 184° (S) 20:05:09 437.305
COMPASS 1 03 Aug 20:02:54 20:06:39 32° 68° (ENE) 20:10:27 437.405
DELFI C3 03 Aug 20:10:46 20:12:02 11° 60° (ENE) 20:13:29 145.870
ZACube-1 03 Aug 20:18:38 20:20:43 14° 60° (ENE) 20:22:58 437.345
Cosmos 2499 03 Aug 20:18:42 20:26:10 32° 277° (W) 20:33:30 435.465 / 435.565
SEEDS 03 Aug 20:22:06 20:26:18 62° 74° (ENE) 20:30:33 437.485
ISS 03 Aug 20:25:34 20:28:30 31° 144° (SE) 20:31:28 145.825
CUTE 1.7 + AOD 2 03 Aug 20:29:30 20:33:48 90° 254° (WSW) 20:38:08 437.475
PRISM 03 Aug 20:30:42 20:34:45 55° 288° (WNW) 20:38:44 437.425
STRAND 1 03 Aug 20:37:38 20:42:35 51° 291° (WNW) 20:47:29 437.568
FUNcube-1 03 Aug 20:37:53 20:40:55 20° 63° (ENE) 20:44:08 145.935
CANX-2 03 Aug 20:38:24 20:42:40 66° 259° (W) 20:46:58 2200.000
CUBESAT XI-V 03 Aug 20:39:36 20:42:22 16° 300° (WNW) 20:44:59 437.345
AAUSAT CUBESAT 2 03 Aug 20:41:19 20:45:29 68° 75° (ENE) 20:49:43 437.432
HUMSAT D 03 Aug 20:43:30 20:44:08 10° 58° (ENE) 20:44:58 437.325/437.525
Oscar 11 03 Aug 20:44:43 20:48:40 36° 69° (ENE) 20:52:41 145.826/435.025
UWE-3 03 Aug 20:47:00 20:50:42 30° 67° (ENE) 20:54:34 435.000/436.395/437.385
Cosmos 2491 03 Aug 20:47:40 20:51:26 14° 46° (NE) 20:55:42 435.465 / 435.565
CINEMA 3 03 Aug 20:56:20 21:00:30 85° 253° (WSW) 21:04:50 145.822/145.860
PHONESAT 2.4 03 Aug 20:59:30 21:02:28 26° 175° (S) 21:05:28 2401.200-2431.200
CUBEBUG 2 03 Aug 21:08:03 21:12:12 61° 73° (ENE) 21:16:31 437.445
DOVE 4 03 Aug 21:08:46 21:12:24 29° 266° (W) 21:16:03 437.250
M-CUBED/EXP-1 PRIME 03 Aug 21:17:01 21:18:20 11° 89° (E) 21:19:54 437.505
DX 1 03 Aug 21:20:08 21:23:05 19° 62° (ENE) 21:26:09 434.975-435.025
50 SAT 03 Aug 21:20:19 21:21:22 11° 60° (ENE) 21:22:36 437.505
HO-68 03 Aug 21:20:46 21:27:25 39° 264° (W) 21:34:02 435.675
VERMONT LUNAR 03 Aug 21:37:07 21:38:39 13° 201° (SSW) 21:40:08 437.305
COMPASS 1 03 Aug 21:38:42 21:42:21 27° 267° (W) 21:45:57 437.405
AUBIESAT-1 03 Aug 21:42:10 21:45:13 17° 93° (E) 21:48:21 437.475
DELFI C3 03 Aug 21:42:27 21:46:31 85° 256° (WSW) 21:50:39 145.870
VELOX 1 03 Aug 21:45:13 21:48:22 20° 63° (ENE) 21:51:36 145.980
ZACube-1 03 Aug 21:52:16 21:56:30 76° 258° (WSW) 22:00:52 437.345
SEEDS 03 Aug 22:00:09 22:02:34 14° 272° (W) 22:04:50 437.485
RS-15 03 Aug 22:00:38 22:11:36 89° 132° (SE) 22:23:06 29.354- 29.394
ISS 03 Aug 22:01:36 22:04:49 58° 341° (NNW) 22:08:03 145.825
ESTCUBE 1 03 Aug 22:07:57 22:11:32 24° 65° (ENE) 22:15:12 437.505/2401.250
FUNcube-1 03 Aug 22:12:51 22:16:56 47° 262° (W) 22:21:09 145.935
HUMSAT D 03 Aug 22:15:01 22:19:10 81° 77° (ENE) 22:23:26 437.325/437.525
BEESAT 3 03 Aug 22:16:17 22:19:05 19° 114° (ESE) 22:22:01 437.485
TIGRISAT 03 Aug 22:18:53 22:21:58 18° 89° (E) 22:25:13 435.000
AAUSAT CUBESAT 2 03 Aug 22:19:34 22:21:37 13° 273° (W) 22:23:30 437.432
Oscar 11 03 Aug 22:21:18 22:24:57 25° 267° (W) 22:28:33 145.826/435.025
ANTELSAT 03 Aug 22:21:47 22:25:08 20° 90° (E) 22:28:36 437.575/2403.000
UKube-1 03 Aug 22:21:55 22:26:12 65° 73° (ENE) 22:30:29 .
UWE-3 03 Aug 22:23:32 22:27:15 29° 266° (W) 22:31:01 435.000/436.395/437.385
PHONESAT 2.4 03 Aug 22:37:06 22:39:54 22° 192° (SSW) 22:42:41 2401.200-2431.200
AIST 1 03 Aug 22:37:42 22:41:55 56° 77° (ENE) 22:46:06
AISAT 03 Aug 22:42:03 22:46:25 70° 74° (ENE) 22:50:49 437.250
Cosmos 2491 03 Aug 22:42:25 22:50:57 55° 73° (ENE) 22:59:29 435.465 / 435.565
CUBEBUG 2 03 Aug 22:47:01 22:49:25 14° 273° (W) 22:51:43 437.445
CUBEBUG 1 03 Aug 22:47:10 22:51:18 45° 70° (ENE) 22:55:28 437.445
M-CUBED/EXP-1 PRIME 03 Aug 22:49:05 22:53:56 82° 109° (ESE) 22:58:38 437.505
POPSAT HIP 1 03 Aug 22:51:04 22:53:08 14° 88° (E) 22:55:24 437.405
50 SAT 03 Aug 22:51:27 22:55:21 83° 254° (WSW) 22:59:20 437.505
DX 1 03 Aug 22:54:44 22:58:59 54° 259° (W) 23:03:16 434.975-435.025
QB50P2 03 Aug 22:58:58 23:01:44 17° 90° (E) 23:04:38 145.880/145.840
YUBILEINY 03 Aug 23:07:49 23:14:54 30° 82° (E) 23:22:16 435.215
SPROUT 03 Aug 23:12:15 23:15:48 26° 66° (ENE) 23:19:26 437.525
UNISAT 6 03 Aug 23:12:22 23:17:01 57° 100° (E) 23:21:40 437.425
TISAT 1 03 Aug 23:13:07 23:15:53 18° 63° (ENE) 23:18:46 437.305
AUBIESAT-1 03 Aug 23:15:39 23:20:24 66° 293° (WNW) 23:24:58 437.475
BEESAT 2 03 Aug 23:17:06 23:21:08 55° 122° (ESE) 23:25:11 435.950
DUCHIFAT 1 03 Aug 23:19:32 23:23:04 25° 94° (E) 23:26:38 145.980
VELOX 1 03 Aug 23:20:18 23:24:36 50° 260° (W) 23:28:54 145.980
NANOSAT C BR1 03 Aug 23:25:00 23:28:43 29° 95° (E) 23:32:29 145.865
QB50P1 03 Aug 23:25:00 23:28:45 30° 95° (E) 23:32:32 145.935-145.965
AIST 2 03 Aug 23:33:04 23:36:14 21° 114° (ESE) 23:39:31 435.215
ISS 03 Aug 23:38:33 23:41:37 36° 2° (N) 23:44:42 145.825
ESTCUBE 1 03 Aug 23:43:52 23:48:12 42° 262° (W) 23:52:31 437.505/2401.250
BEESAT 3 03 Aug 23:52:40 23:56:41 55° 311° (NW) 00:00:44 437.485
TIGRISAT 03 Aug 23:54:30 23:59:08 60° 287° (WNW) 00:03:47 435.000
HUMSAT D 03 Aug 23:54:35 23:55:37 11° 275° (W) 23:56:23 437.325/437.525
ANTELSAT 03 Aug 23:57:39 00:02:15 54° 289° (WNW) 00:06:52 437.575/2403.000
SWISSCUBE 03 Aug 23:58:01 00:00:16 14° 57° (ENE) 00:02:42 437.505
UKube-1 04 Aug 00:00:25 00:02:49 14° 271° (W) 00:05:03 .
POLYITAN 1 04 Aug 00:09:23 00:13:42 87° 104° (ESE) 00:18:00 437.675
O/OREOS (USA 219) 04 Aug 00:11:24 00:14:08 17° 101° (E) 00:17:02 437.305
BUGSAT 1 04 Aug 00:13:18 00:17:20 59° 101° (E) 00:21:24 437.445
RS-15 04 Aug 00:15:14 00:25:35 41° 335° (NNW) 00:36:20 29.354- 29.394
AIST 1 04 Aug 00:16:40 00:19:08 15° 275° (W) 00:21:26
ITUPSAT 1 04 Aug 00:19:20 00:22:35 19° 61° (ENE) 00:25:58 437.325
AISAT 04 Aug 00:21:16 00:23:33 13° 272° (W) 00:25:38 437.250
CUBEBUG 1 04 Aug 00:24:37 00:27:55 20° 269° (W) 00:31:06 437.445
M-CUBED/EXP-1 PRIME 04 Aug 00:24:57 00:28:06 17° 306° (NW) 00:31:06 437.505
POPSAT HIP 1 04 Aug 00:25:15 00:29:31 66° 286° (WNW) 00:33:45 437.405
QB50P2 04 Aug 00:33:48 00:37:58 52° 288° (WNW) 00:42:08 145.880/145.840
Cosmos 2491 04 Aug 00:39:45 00:47:35 38° 274° (W) 00:55:15 435.465 / 435.565
TISAT 1 04 Aug 00:47:14 00:51:19 52° 260° (W) 00:55:24 437.305
SPROUT 04 Aug 00:47:53 00:51:47 34° 264° (W) 00:55:41 437.525
UNISAT 6 04 Aug 00:49:58 00:53:25 20° 298° (WNW) 00:56:47 437.425
AUBIESAT-1 04 Aug 00:52:24 00:54:15 12° 310° (NW) 00:55:55 437.475
DUCHIFAT 1 04 Aug 00:55:04 00:58:56 34° 292° (WNW) 01:02:47 145.980
Oscar 19 04 Aug 00:55:23 00:57:46 13° 86° (E) 01:00:25 437.125/150
BEESAT 2 04 Aug 00:56:05 00:59:29 24° 323° (NW) 01:02:51 435.950
NANOSAT C BR1 04 Aug 01:00:47 01:04:32 30° 292° (WNW) 01:08:14 145.865
QB50P1 04 Aug 01:00:51 01:04:35 30° 293° (WNW) 01:08:16 145.935-145.965
YUBILEINY 04 Aug 01:02:28 01:11:08 68° 283° (WNW) 01:19:55 435.215
AIST 2 04 Aug 01:10:20 01:14:31 52° 312° (NW) 01:18:42 435.215
BEESAT 04 Aug 01:11:47 01:16:26 52° 71° (ENE) 01:21:07 436.000
ISS 04 Aug 01:15:06 01:18:22 70° 21° (NNE) 01:21:37 145.825
KKS-1 04 Aug 01:17:30 01:19:08 12° 58° (ENE) 01:20:59 437.445
SWISSCUBE 04 Aug 01:32:39 01:37:27 87° 80° (E) 01:42:19 437.505
BEESAT 3 04 Aug 01:33:28 01:35:31 13° 333° (NNW) 01:37:30 437.485
POLYITAN 1 04 Aug 01:47:12 01:49:00 12° 301° (WNW) 01:50:38 437.675
O/OREOS (USA 219) 04 Aug 01:48:41 01:53:07 60° 299° (WNW) 01:57:38 437.305
BUGSAT 1 04 Aug 01:49:55 01:52:24 16° 298° (WNW) 01:54:47 437.445
ITUPSAT 1 04 Aug 01:55:15 02:00:02 65° 258° (WSW) 02:04:51 437.325
Cosmos 2504 04 Aug 02:10:02 02:16:53 49° 89° (E) 02:24:20 435.465 / 435.565
STARS 04 Aug 02:16:55 02:20:32 26° 65° (ENE) 02:24:13 437.465
Gurwin Techsat 1B 04 Aug 02:17:55 02:22:08 24° 91° (E) 02:26:27 435.225
ITAMSAT 1 04 Aug 02:22:06 02:26:04 22° 91° (E) 02:30:08 435.822/435.867
RS-15 04 Aug 02:31:47 02:41:48 34° 9° (N) 02:52:17 29.354- 29.394
Oscar 19 04 Aug 02:32:43 02:37:56 88° 291° (WNW) 02:43:09 437.125/150
KKS-1 04 Aug 02:50:42 02:55:08 88° 78° (ENE) 02:59:36 437.445
BEESAT 04 Aug 02:50:58 02:54:37 21° 269° (W) 02:58:10 436.000
AIST 2 04 Aug 02:51:52 02:54:03 13° 334° (NNW) 02:56:09 435.215
ISS 04 Aug 02:51:52 02:54:34 24° 219° (SW) 02:57:14 145.825
AO-7 04 Aug 03:03:51 03:07:50 15° 82° (E) 03:12:22 29.400- 29.500
YUBILEINY 04 Aug 03:04:33 03:10:08 17° 310° (NW) 03:15:20 435.215
JAS-2 04 Aug 03:12:43 03:19:54 38° 92° (E) 03:27:02 435.910
SWISSCUBE 04 Aug 03:14:01 03:16:05 12° 274° (W) 03:17:54 437.505
O/OREOS (USA 219) 04 Aug 03:32:17 03:33:37 11° 321° (NW) 03:34:48 437.305
HORYU 2 04 Aug 03:46:17 03:49:27 19° 91° (E) 03:52:45 437.375
STARS 04 Aug 03:52:49 03:56:51 36° 263° (W) 04:00:54 437.465
GONETS M04 04 Aug 03:54:44 03:57:42 13° 72° (ENE) 04:01:18
Gurwin Techsat 1B 04 Aug 03:57:17 04:02:28 52° 290° (WNW) 04:07:36 435.225
ITAMSAT 1 04 Aug 04:00:54 04:05:58 54° 290° (WNW) 04:10:59 435.822/435.867
Cosmos 2504 04 Aug 04:02:36 04:09:22 38° 293° (WNW) 04:16:32 435.465 / 435.565
MOZHAYETS 4 04 Aug 04:04:00 04:08:35 64° 73° (ENE) 04:13:13
Oscar 19 04 Aug 04:13:38 04:16:38 15° 303° (WNW) 04:19:26 437.125/150
CUSAT 1 04 Aug 04:23:57 04:26:35 58° 284° (WNW) 04:29:10 437.405
DANDE 04 Aug 04:26:43 04:29:36 74° 102° (ESE) 04:32:14 436.750
KKS-1 04 Aug 04:31:24 04:32:31 11° 275° (W) 04:33:22 437.445
CUBESAT XI-V 04 Aug 04:32:23 04:34:51 15° 60° (ENE) 04:37:27 437.345
RS-15 04 Aug 04:45:49 04:57:15 59° 40° (NE) 05:09:14 29.354- 29.394
AO-7 04 Aug 04:54:07 05:02:28 69° 105° (ESE) 05:10:44 29.400- 29.500
JAS-2 04 Aug 04:57:33 05:05:12 56° 292° (WNW) 05:12:42 435.910
HORYU 2 04 Aug 05:22:02 05:26:26 51° 289° (WNW) 05:30:48 437.375
MOZHAYETS 4 04 Aug 05:43:21 05:46:19 16° 272° (W) 05:49:06
GONETS M04 04 Aug 05:44:24 05:52:53 62° 93° (E) 06:01:25
PRISM 04 Aug 05:49:31 05:52:23 19° 63° (ENE) 05:55:23 437.425
CUTE-I 04 Aug 05:53:01 05:56:05 16° 87° (E) 05:59:21 437.470
BEESAT 2 04 Aug 05:55:57 05:58:47 18° 33° (NNE) 06:01:39 435.950
CUBESAT XI-V 04 Aug 06:07:01 06:11:43 82° 257° (WSW) 06:16:24 437.345
AIST 2 04 Aug 06:13:42 06:15:03 11° 22° (NNE) 06:16:29 435.215
STRAND 1 04 Aug 06:17:42 06:22:35 47° 69° (ENE) 06:27:32 437.568
BEESAT 3 04 Aug 06:30:36 06:34:20 34° 43° (NE) 06:38:03 437.485
Cubesat XI-IV 04 Aug 06:36:50 06:41:46 37° 96° (E) 06:46:42 437.490
JAS-2 04 Aug 06:44:24 06:48:47 16° 312° (NW) 06:52:51 435.910
AO-7 04 Aug 06:47:30 06:54:48 34° 306° (NW) 07:01:56 29.400- 29.500
RS-15 04 Aug 06:58:35 07:09:56 56° 244° (WSW) 07:21:33 29.354- 29.394
Cosmos 2499 04 Aug 07:05:20 07:12:26 48° 89° (E) 07:20:12 435.465 / 435.565
PRISM 04 Aug 07:23:27 07:27:31 49° 260° (W) 07:31:36 437.425
PCSat 04 Aug 07:25:59 07:28:51 15° 105° (ESE) 07:31:59 145.827
CUTE-I 04 Aug 07:31:32 07:36:53 79° 287° (WNW) 07:42:12 437.470
BEESAT 2 04 Aug 07:33:18 07:37:24 86° 235° (SW) 07:41:27 435.950
GONETS M04 04 Aug 07:42:32 07:50:22 35° 296° (WNW) 07:58:04
AIST 2 04 Aug 07:50:48 07:54:47 39° 44° (NE) 07:58:43 435.215
GOMX 1 04 Aug 07:53:56 07:57:11 19° 91° (E) 08:00:42 467.674
STRAND 1 04 Aug 07:57:45 08:02:03 26° 267° (W) 08:06:16 437.568
BRITE-PL 04 Aug 07:59:41 08:03:42 33° 96° (E) 08:08:00 437.365/2234.400
M-CUBED/EXP-1 PRIME 04 Aug 08:06:15 08:09:36 23° 57° (ENE) 08:13:13 437.505
BEESAT 3 04 Aug 08:08:37 08:12:14 31° 242° (WSW) 08:15:46 437.485
CUTE 1.7 + AOD 2 04 Aug 08:13:15 08:15:11 13° 87° (E) 08:17:18 437.475
Cubesat XI-IV 04 Aug 08:17:02 08:21:51 35° 295° (WNW) 08:26:36 437.490
CANX-2 04 Aug 08:21:27 08:24:18 18° 89° (E) 08:27:17 2200.000
AUBIESAT-1 04 Aug 08:31:41 08:35:30 33° 61° (ENE) 08:39:37 437.475
O/OREOS (USA 219) 04 Aug 08:39:18 08:40:10 11° 38° (NE) 08:41:13 437.305
SO-50 04 Aug 08:39:49 08:44:22 46° 120° (ESE) 08:49:06 436.795
UNISAT 6 04 Aug 08:42:16 08:42:42 10° 56° (NE) 08:43:22 437.425
AO-7 04 Aug 08:43:20 08:45:10 11° 330° (NNW) 08:46:41 29.400- 29.500
HO-68 04 Aug 08:44:17 08:50:46 36° 95° (E) 08:57:21 435.675
CINEMA 3 04 Aug 08:48:06 08:51:31 20° 90° (E) 08:55:09 145.822/145.860
CUBEBUG 2 04 Aug 08:57:41 08:59:14 12° 85° (E) 09:01:04 437.445
Cosmos 2499 04 Aug 08:58:41 09:05:50 40° 293° (WNW) 09:13:26 435.465 / 435.565
DOVE 4 04 Aug 09:02:52 09:07:25 54° 99° (E) 09:12:17 437.250
PCSat 04 Aug 09:06:10 09:11:36 90° 168° (SSE) 09:17:05 145.827
YUBILEINY 04 Aug 09:12:56 09:18:36 19° 52° (NE) 09:24:38 435.215
CUTE-I 04 Aug 09:13:24 09:16:12 14° 305° (NW) 09:18:48 437.470
BEESAT 2 04 Aug 09:14:15 09:14:49 10° 250° (WSW) 09:15:10 435.950
RS-15 04 Aug 09:15:16 09:20:04 13° 265° (W) 09:23:47 29.354- 29.394
COMPASS 1 04 Aug 09:18:13 09:22:11 38° 97° (E) 09:26:08 437.405
TIGRISAT 04 Aug 09:20:49 09:24:10 22° 64° (ENE) 09:27:41 435.000
DELFI C3 04 Aug 09:20:54 09:21:36 10° 86° (E) 09:22:32 145.870
ANTELSAT 04 Aug 09:23:55 09:27:27 24° 65° (ENE) 09:31:08 437.575/2403.000
AIST 2 04 Aug 09:29:37 09:33:14 28° 243° (WSW) 09:36:44 435.215
GOMX 1 04 Aug 09:31:12 09:35:38 54° 288° (WNW) 09:40:22 467.674
POLYITAN 1 04 Aug 09:32:25 09:34:04 12° 59° (ENE) 09:35:55 437.675
ZACube-1 04 Aug 09:38:22 09:41:27 18° 89° (E) 09:44:40 437.345
BRITE-PL 04 Aug 09:38:22 09:42:13 29° 292° (WNW) 09:46:13 437.365/2234.400
SEEDS 04 Aug 09:38:49 09:43:07 80° 103° (ESE) 09:47:21 437.485
M-CUBED/EXP-1 PRIME 04 Aug 09:39:59 09:44:03 48° 256° (WSW) 09:48:29 437.505
POPSAT HIP 1 04 Aug 09:46:59 09:49:35 17° 62° (ENE) 09:52:17 437.405
CUTE 1.7 + AOD 2 04 Aug 09:47:20 09:51:39 69° 286° (WNW) 09:55:54 437.475
QB50P2 04 Aug 09:55:01 09:58:05 20° 64° (ENE) 10:01:14 145.880/145.840
CANX-2 04 Aug 09:56:23 10:00:34 51° 289° (WNW) 10:04:44 2200.000
AAUSAT CUBESAT 2 04 Aug 09:56:27 10:00:42 83° 105° (ESE) 10:04:53 437.432
FUNcube-1 04 Aug 09:57:56 10:01:46 27° 93° (E) 10:05:42 145.935
HUMSAT D 04 Aug 09:58:00 09:59:16 11° 85° (E) 10:00:46 437.325/437.525
Cosmos 2491 04 Aug 09:58:49 10:00:40 11° 71° (ENE) 10:03:12 435.465 / 435.565
Oscar 11 04 Aug 10:04:31 10:08:45 46° 98° (E) 10:12:57 145.826/435.025
AUBIESAT-1 04 Aug 10:06:25 10:10:12 31° 261° (W) 10:14:12 437.475
UWE-3 04 Aug 10:09:11 10:13:37 45° 98° (E) 10:18:07 435.000/436.395/437.385
UNISAT 6 04 Aug 10:14:19 10:18:41 72° 74° (ENE) 10:23:12 437.425
DUCHIFAT 1 04 Aug 10:14:54 10:18:29 28° 67° (ENE) 10:22:08 145.980
O/OREOS (USA 219) 04 Aug 10:16:12 10:20:43 56° 60° (ENE) 10:25:15 437.305
NANOSAT C BR1 04 Aug 10:20:29 10:24:14 33° 68° (ENE) 10:28:03 145.865
SO-50 04 Aug 10:20:39 10:25:05 34° 321° (NW) 10:29:36 436.795
QB50P1 04 Aug 10:20:42 10:24:29 34° 68° (ENE) 10:28:18 145.935-145.965
CINEMA 3 04 Aug 10:24:25 10:29:02 55° 288° (WNW) 10:33:49 145.822/145.860
HO-68 04 Aug 10:31:50 10:38:47 52° 295° (WNW) 10:45:40 435.675
CUBEBUG 2 04 Aug 10:31:57 10:36:38 89° 284° (WNW) 10:41:23 437.445
AISAT 04 Aug 10:32:14 10:32:56 10° 85° (E) 10:33:53 437.250
DX 1 04 Aug 10:40:27 10:43:38 20° 92° (E) 10:46:55 434.975-435.025
DOVE 4 04 Aug 10:41:25 10:44:56 21° 295° (WNW) 10:48:28 437.250
PCSat 04 Aug 10:51:34 10:55:48 22° 325° (NW) 10:59:58 145.827
DELFI C3 04 Aug 10:53:13 10:57:18 78° 285° (WNW) 11:01:20 145.870
COMPASS 1 04 Aug 10:54:16 10:57:40 23° 294° (WNW) 11:00:58 437.405
TIGRISAT 04 Aug 10:56:26 11:00:38 45° 262° (W) 11:04:59 435.000
ANTELSAT 04 Aug 10:59:52 11:04:02 41° 263° (W) 11:08:19 437.575/2403.000
POLYITAN 1 04 Aug 11:05:11 11:09:24 83° 259° (WSW) 11:13:39 437.675
BUGSAT 1 04 Aug 11:06:13 11:10:11 62° 74° (ENE) 11:14:11 437.445
VELOX 1 04 Aug 11:07:52 11:11:24 24° 93° (E) 11:15:00 145.980
YUBILEINY 04 Aug 11:08:33 11:17:24 73° 78° (ENE) 11:26:15 435.215
AIST 1 04 Aug 11:10:43 11:14:24 28° 90° (E) 11:18:08
ZACube-1 04 Aug 11:13:42 11:18:10 56° 288° (WNW) 11:22:40 437.345
SEEDS 04 Aug 11:16:18 11:18:21 13° 300° (WNW) 11:20:14 437.485
POPSAT HIP 1 04 Aug 11:20:54 11:25:02 58° 259° (W) 11:29:13 437.405
QB50P2 04 Aug 11:29:39 11:33:42 45° 261° (W) 11:37:47 145.880/145.840
HUMSAT D 04 Aug 11:31:17 11:35:40 81° 282° (WNW) 11:39:59 437.325/437.525
ESTCUBE 1 04 Aug 11:33:20 11:37:19 31° 95° (E) 11:41:20 437.505/2401.250
AAUSAT CUBESAT 2 04 Aug 11:33:54 11:35:42 12° 300° (WNW) 11:37:19 437.432
FUNcube-1 04 Aug 11:33:58 11:38:11 37° 291° (WNW) 11:42:23 145.935
Oscar 11 04 Aug 11:41:20 11:44:39 21° 296° (WNW) 11:47:52 145.826/435.025
UKube-1 04 Aug 11:42:05 11:46:26 77° 103° (ESE) 11:50:45 .
UWE-3 04 Aug 11:46:10 11:49:55 24° 295° (WNW) 11:53:35 435.000/436.395/437.385
Cosmos 2491 04 Aug 11:47:17 11:55:43 57° 91° (E) 12:04:12 435.465 / 435.565
DUCHIFAT 1 04 Aug 11:50:32 11:54:15 30° 265° (W) 11:57:57 145.980
Cosmos 2504 04 Aug 11:51:54 11:58:06 23° 58° (ENE) 12:04:41 435.465 / 435.565
UNISAT 6 04 Aug 11:53:50 11:56:06 13° 274° (W) 11:58:11 437.425
O/OREOS (USA 219) 04 Aug 11:56:33 11:59:47 19° 258° (WSW) 12:02:53 437.305
NANOSAT C BR1 04 Aug 11:56:35 12:00:07 26° 266° (W) 12:03:39 145.865
QB50P1 04 Aug 11:56:53 12:00:24 25° 266° (W) 12:03:54 145.935-145.965
50 SAT 04 Aug 11:58:01 12:02:02 85° 285° (WNW) 12:06:00 437.505
SO-50 04 Aug 12:04:47 12:07:07 13° 344° (NNW) 12:09:24 436.795
AISAT 04 Aug 12:05:48 12:10:14 89° 292° (WNW) 12:14:41 437.250
CUBEBUG 1 04 Aug 12:08:44 12:13:02 58° 101° (E) 12:17:19 437.445
CUBEBUG 2 04 Aug 12:10:25 12:12:43 13° 301° (WNW) 12:14:50 437.445
Oscar 19 04 Aug 12:14:37 12:18:52 28° 64° (ENE) 12:23:15 437.125/150
DX 1 04 Aug 12:15:58 12:20:08 45° 290° (WNW) 12:24:16 434.975-435.025
AO-7 04 Aug 12:21:32 12:22:13 10° 29° (NNE) 12:23:14 29.400- 29.500
HO-68 04 Aug 12:21:43 12:25:05 14° 316° (NW) 12:28:07 435.675
TISAT 1 04 Aug 12:29:02 12:32:03 19° 91° (E) 12:35:10 437.305
SPROUT 04 Aug 12:30:58 12:34:51 32° 96° (E) 12:38:45 437.525
VELOX 1 04 Aug 12:43:58 12:48:06 39° 291° (WNW) 12:52:12 145.980
BUGSAT 1 04 Aug 12:44:11 12:46:08 13° 272° (W) 12:47:55 437.445
AIST 1 04 Aug 12:48:11 12:52:01 29° 288° (WNW) 12:55:49
YUBILEINY 04 Aug 13:06:19 13:13:32 28° 279° (W) 13:20:28 435.215
HUMSAT D 04 Aug 13:09:28 13:10:43 11° 302° (WNW) 13:11:45 437.325/437.525
ESTCUBE 1 04 Aug 13:10:11 13:14:10 31° 293° (WNW) 13:18:06 437.505/2401.250
BEESAT 04 Aug 13:12:05 13:12:24 10° 84° (E) 13:13:02 436.000
CUSAT 1 04 Aug 13:12:37 13:14:27 13° 66° (ENE) 13:16:43 437.405
UKube-1 04 Aug 13:19:45 13:22:02 14° 301° (WNW) 13:24:11 .
JAS-2 04 Aug 13:29:16 13:34:16 24° 55° (NE) 13:39:51 435.910
SWISSCUBE 04 Aug 13:30:50 13:33:59 18° 89° (E) 13:37:15 437.505
Gurwin Techsat 1B 04 Aug 13:41:51 13:46:58 51° 69° (ENE) 13:52:08 435.225
ITAMSAT 1 04 Aug 13:42:50 13:47:48 47° 69° (ENE) 13:52:48 435.822/435.867
Cosmos 2504 04 Aug 13:43:11 13:51:40 86° 80° (E) 14:00:20 435.465 / 435.565
AISAT 04 Aug 13:44:20 13:46:12 12° 302° (WNW) 13:47:53 437.250
Cosmos 2491 04 Aug 13:44:58 13:53:02 38° 294° (WNW) 14:00:59 435.465 / 435.565
CUBEBUG 1 04 Aug 13:46:06 13:49:00 17° 298° (WNW) 13:51:46 437.445
SO-50 04 Aug 13:48:22 13:49:48 11° 8° (N) 13:51:18 436.795
ITUPSAT 1 04 Aug 13:53:05 13:57:02 26° 93° (E) 14:01:02 437.325
Oscar 19 04 Aug 13:53:09 13:58:03 45° 262° (W) 14:02:59 437.125/150
TISAT 1 04 Aug 14:04:02 14:08:04 45° 289° (WNW) 14:12:06 437.305
AO-7 04 Aug 14:05:27 14:12:29 33° 53° (NE) 14:19:41 29.400- 29.500
SPROUT 04 Aug 14:07:09 14:10:52 28° 293° (WNW) 14:14:31 437.525
PCSat 04 Aug 14:25:53 14:27:28 11° 17° (NNE) 14:29:08 145.827
KKS-1 04 Aug 14:40:09 14:42:20 14° 88° (E) 14:44:43 437.445
BEESAT 04 Aug 14:46:20 14:51:09 81° 105° (ESE) 14:55:55 436.000
HORYU 2 04 Aug 14:47:24 14:51:07 27° 65° (ENE) 14:54:53 437.375
CUSAT 1 04 Aug 14:52:56 14:57:14 84° 261° (W) 15:03:01 437.405
DANDE 04 Aug 14:59:34 15:03:25 74° 78° (ENE) 15:08:37 436.750
SWISSCUBE 04 Aug 15:07:34 15:12:18 60° 289° (WNW) 15:16:59 437.505
JAS-2 04 Aug 15:12:06 15:18:29 82° 256° (WSW) 15:25:47 435.910
Gurwin Techsat 1B 04 Aug 15:22:53 15:27:16 25° 268° (W) 15:31:34 435.225
ITAMSAT 1 04 Aug 15:23:09 15:27:33 26° 267° (W) 15:31:53 435.822/435.867
SO-50 04 Aug 15:28:11 15:32:08 23° 32° (NNE) 15:36:08 436.795
ITUPSAT 1 04 Aug 15:30:35 15:35:07 42° 292° (WNW) 15:39:34 437.325
Cosmos 2504 04 Aug 15:36:39 15:43:01 23° 280° (W) 15:49:09 435.465 / 435.565
STARS 04 Aug 15:39:01 15:42:59 32° 96° (E) 15:46:58 437.465
GONETS M04 04 Aug 15:50:37 15:58:28 37° 66° (ENE) 16:06:27
AO-7 04 Aug 15:56:22 16:04:44 73° 254° (WSW) 16:13:09 29.400- 29.500
MOZHAYETS 4 04 Aug 15:57:55 15:59:41 12° 85° (E) 16:01:42
PCSat 04 Aug 16:08:00 16:12:45 30° 41° (NE) 16:17:33 145.827
KKS-1 04 Aug 16:15:04 16:19:32 71° 286° (WNW) 16:23:59 437.445
HORYU 2 04 Aug 16:23:27 16:27:37 37° 263° (W) 16:31:47 437.375
Cubesat XI-IV 04 Aug 16:25:06 16:27:54 15° 56° (NE) 16:30:55 437.490
BEESAT 04 Aug 16:25:35 16:28:25 15° 302° (WNW) 16:31:05 436.000
CUSAT 1 04 Aug 16:38:44 16:39:39 10° 270° (W) 16:40:15 437.405
